OpenBCM V2.0.3 (Linux)

Packet Radio Mailbox

IZ3LSV

[San Dona' di P. JN]

 Login: GUEST





  
LU9DCE > KEP      20.12.19 18:33l 244 Lines 12054 Bytes #999 (0) @ WW
BID : 5511_LU9DCE
Read: GUEST
Subj: TLE 20 12
Path: IZ3LSV<IK6IHL<IK7NXU<HB9CSR<IR2UBX<EA2RCF<LU9DCE
Sent: 191220/1600Z 5511@LU9DCE.TOR.BA.ARG.SOAM LinBPQ6.0.19

            __    _  _  ___  ____   ___  ____    ____  ____  ____
           (  )  / )( \/ _ \(    \ / __)(  __)  (  _ \(  _ \/ ___)
           / (_/\) \/ (\__  )) D (( (__  ) _)    ) _ ( ) _ (\___ \
           \____/\____/(___/(____/ \___)(____)  (____/(____/(____/
               ESTACION DE PACKET RADIO - BUENOS AIRES (GF05OM)
                   BOLETINES INFORMATIVOS PROGRAMADOS (BIP)
                      LINUX - HELLOCODELINUX@GMAIL.COM
+----------------------------------------------------------------------------+
OSCAR 7
1  7530U 74089B   19354.45767194 -.00000025  00000-0  12440-3 0  9990
2  7530 101.7736 320.4041 0012293 352.0867 118.7130 12.53641294 63674
OSCAR 11 (UoSAT 2)
1 14781U 84021B   19354.08884171  .00000087  00000-0  16774-4 0  9999
2 14781  97.5989   9.9581 0009943  76.7752 283.4571 14.83128854926091
OSCAR 19 (LUSAT)
1 20442U 90005G   19354.43083342 -.00000012  00000-0  11925-4 0  9991
2 20442  98.6708 296.2927 0011235 330.1059  29.9482 14.32940779562836
EYESAT A
1 22825U 93061C   19354.07118649 -.00000009  00000-0  14461-4 0  9996
2 22825  98.9169 347.0454 0008435 175.3197 184.8065 14.30073731368304
ITAMSAT
1 22826U 93061D   19353.88995807 +.00000004 +00000-0 +19530-4 0  9990
2 22826 098.9109 346.8284 0009152 164.9822 195.1633 14.30408292368235
RADIO ROSTO
1 23439U 94085A   19353.90343448 -.00000029 +00000-0 +38107-3 0  9997
2 23439 064.8125 178.2290 0145941 077.1375 284.5807 11.27569373028662
JAS 2
1 24278U 96046B   19353.81954383 -.00000037 +00000-0 -42148-5 0  9996
2 24278 098.5636 122.5060 0351147 122.6665 240.8863 13.53094969152454
TECHSAT 1B
1 25397U 98043D   19354.45774935 -.00000014  00000-0  13315-4 0  9999
2 25397  98.7094 292.5158 0000929 165.3628 194.7577 14.23676348114165
ISS (ZARYA)
1 25544U 98067A   19354.58508163  .00000533  00000-0  17318-4 0  9993
2 25544  51.6434 157.2344 0007749  55.1472  28.6137 15.50124567204179
PCSAT
1 26931U 01043C   19354.42290019 -.00000029  00000-0  20603-4 0  9995
2 26931  67.0511 246.9783 0007034 263.9757  96.0542 14.30562145951399
SAUDISAT 1C
1 27607U 02058C   19354.09491437 -.00000050  00000-0  13753-4 0  9995
2 27607  64.5537 205.8012 0069188 220.0796 139.5191 14.75596081914245
CUTE-1
1 27844U 03031E   19353.97932101  .00000045  00000-0  39991-4 0  9999
2 27844  98.6835 359.4328 0009274 212.9663 147.0937 14.22211578854484
CUBESAT XI 4
1 27848U 03031J   19354.44638604  .00000033  00000-0  34635-4 0  9994
2 27848  98.6909   0.4279 0009008 224.0881 135.9579 14.21802304854399
MOZHAYETS 4
1 27939U 03042A   19354.43675368  .00000100  00000-0  26577-4 0  9995
2 27939  98.0655 126.9516 0012637 197.7631 162.3135 14.66825124867627
CUBESAT XI 5
1 28895U 05043F   19354.35732727  .00000102  00000-0  28318-4 0  9991
2 28895  97.9838 131.0621 0017890 126.7162 233.5687 14.63721999754496
CUTE-1.7+APD II
1 32785U 08021C   19354.50142302  .00000192  00000-0  26275-4 0  9993
2 32785  97.5596 345.6000 0013435  16.6800 343.4857 14.88391505631179
DELFI C3
1 32789U 08021G   19353.85957691 +.00001073 +00000-0 +74964-4 0  9996
2 32789 097.4429 037.7733 0011520 208.3426 151.7177 15.07334474634606
SEEDS
1 32791U 08021J   19354.07292073  .00000400  00000-0  45815-4 0  9996
2 32791  97.5326 351.3061 0013011 350.3464   9.7503 14.90935202631588
YUBELEINY
1 32953U 08025A   19354.51601168  .00000037  00000-0  19437-3 0  9994
2 32953  82.5050  29.8200 0020370  87.4121 272.9291 12.43093085525278
PRISM (HITOMI)
1 33493U 09002B   19354.04289283  .00000183  00000-0  21558-4 0  9998
2 33493  98.1311 282.0461 0013909 296.7702  63.2095 14.96849505592726
KKS-1 (KISEKI)
1 33499U 09002H   19354.13411148  .00000075  00000-0  19018-4 0  9999
2 33499  98.3332 198.5980 0008820 347.2636  12.8348 14.75489305586424
SWISSCUBE
1 35932U 09051B   19353.73118393 +.00000106 +00000-0 +35039-4 0  9994
2 35932 098.5996 165.2872 0006962 328.0401 032.0373 14.56340832543525
BEESAT
1 35933U 09051C   19353.99812248  .00000100  00000-0  33592-4 0  9999
2 35933  98.6008 167.3907 0005389 344.0355  16.0672 14.56423187543711
ITUPSAT 1
1 35935U 09051E   19354.43745685  .00000083  00000-0  30216-4 0  9991
2 35935  98.6116 168.0658 0007612 337.5281  22.5581 14.55575961543516
XIWANG-1 (HOPE-1)
1 36122U 09072B   19354.42690360 -.00000046  00000-0 -10015-4 0  9997
2 36122 100.0807 348.1736 0006930 279.1443  80.8892 13.16352335481181
TISAT 1
1 36799U 10035E   19354.01382352  .00000289  00000-0  35197-4 0  9997
2 36799  98.1750 152.5645 0011941 196.0555 164.0285 14.91229312512234
JUGNU
1 37839U 11058B   19354.53581778  .00000308  00000-0  22227-4 0  9991
2 37839  19.9618 293.8514 0018922 204.2058 311.7658 14.12667246423426
SRMSAT
1 37841U 11058D   19353.71839236 +.00000311 +00000-0 +25598-4 0  9996
2 37841 019.9735 359.3898 0012060 058.8461 095.6810 14.10645994422612
M-CUBED/EXP-1 PRIME
1 37855U 11061F   19354.47501585  .00000925  00000-0  53913-4 0  9995
2 37855 101.7259 345.0584 0172101 248.9141 109.3596 15.05888791444585
HORYU 2
1 38340U 12025D   19354.13463790  .00000145  00000-0  29115-4 0  9995
2 38340  98.3074  38.0428 0010330 254.3007 105.7062 14.75789029408368
STRAND 1
1 39090U 13009E   19353.78192776  .00000017  00000-0  21090-4 0  9996
2 39090  98.4688 196.4945 0010249 100.5784 259.6556 14.35110533356799
SOMP
1 39134U 13015E   19353.87060889 +.00001263 +00000-0 +65804-4 0  9996
2 39134 064.8620 143.5553 0038059 272.8651 086.8121 15.20585745368218
BEESAT 3
1 39135U 13015F   19353.86037743 +.00000829 +00000-0 +49943-4 0  9992
2 39135 064.8647 164.5058 0043067 275.8605 083.7613 15.17796885367809
BEESAT 2
1 39136U 13015G   19353.83596761  .00000894  00000-0  54331-4 0  9999
2 39136  64.8689 168.9583 0030749 282.2402  77.5281 15.17220348368109
CUBEBUG 1
1 39153U 13018D   19354.53050826  .00000168  00000-0  28763-4 0  9990
2 39153  97.9819  91.6627 0015993 323.0591  36.9519 14.80641136359168
ZACUBE
1 39417U 13066B   19354.47235274  .00000184  00000-0  29316-4 0  9994
2 39417  97.5611 357.5760 0059716 146.9446 213.5523 14.81194390328396
TRITON 1
1 39427U 13066M   19354.45983125  .00000140  00000-0  30634-4 0  9995
2 39427  97.7010 320.6670 0112467 294.3407  64.6090 14.67921212325443
GOMX 1
1 39430U 13066Q   19354.41321294  .00000228  00000-0  49967-4 0  9994
2 39430  97.7715 299.0256 0151980  32.2675 328.7711 14.59326376323541
HUMSAT D
1 39433U 13066T   19354.08048027  .00000373  00000-0  41419-4 0  9995
2 39433  97.5313  33.8257 0031710  47.4266 312.9621 14.92330743330579
CUBEBUG 2
1 39440U 13066AA  19354.49838912  .00000150  00000-0  27918-4 0  9999
2 39440  97.6145 342.1447 0079530 203.7194 156.0343 14.75932414327238
FUNCUBE 1
1 39444U 13066AE  19354.50505414  .00000221  00000-0  33374-4 0  9995
2 39444  97.5574 359.7179 0058987 139.9673 220.5912 14.82029914327305
UWE-3
1 39446U 13066AG  19354.45682464  .00000166  00000-0  28668-4 0  9990
2 39446  97.5873 349.2794 0070052 175.9417 184.2378 14.78466559326563
SPROUT
1 39770U 14029E   19354.35837093  .00000640  00000-0  76572-4 0  9993
2 39770  97.8910  96.5530 0008739 192.4360 167.6631 14.87546296302289
UNISAT 6
1 40012U 14033C   19354.52229019  .00000133  00000-0  27163-4 0  9990
2 40012  97.7307 212.9090 0057341 220.4389 139.2552 14.74046306295911
DUCHIFAT 1
1 40021U 14033M   19354.06891234  .00000410  00000-0  47524-4 0  9994
2 40021  97.9328 279.3295 0013230 156.3856 203.7972 14.90765964299019
QB50P1
1 40025U 14033R   19354.09989045  .00000177  00000-0  24823-4 0  9996
2 40025  97.9103 273.4946 0012600 166.4431 193.7127 14.89040054298768
CHUBUSAT 1
1 40300U 14070C   19354.24447490  .00000599  00000-0  28861-4 0  9997
2 40300  97.3102  63.5970 0021031 124.4487 287.5448 15.22293801284092
NUDT-PHONESAT
1 40900U 15049B   19354.53274053  .00001756  00000-0  76706-4 0  9992
2 40900  97.4352   2.1007 0011063 255.1358 259.7658 15.23410220235793
ZDPS 2A
1 40901U 15049C   19354.40216155  .00000837  00000-0  44486-4 0  9997
2 40901  97.4608 357.5966 0011823 282.9028 186.2107 15.17986406235256
ZDPS 2B
1 40902U 15049D   19354.45419683  .00000954  00000-0  50347-4 0  9997
2 40902  97.4580 355.0017 0011903 279.6407 239.3850 15.17893979235234
XW-2A
1 40903U 15049E   19354.38134641  .00001491  00000-0  36407-4 0  9996
2 40903  97.3150  37.9977 0012848 189.2124 234.7803 15.42435933238712
KAITUO 1A
1 40904U 15049F   19354.42598067  .00000432  00000-0  26282-4 0  9992
2 40904  97.4719 353.3402 0013133 291.0368 206.9743 15.15540369234971
OBJECT G
1 40905U 15049G   19354.44483966  .00000108  00000-0  94364-5 0  9993
2 40905  97.4781 350.7238 0014147 285.9411 232.1113 15.14416871234832
XW-2C
1 40906U 15049H   19354.45763103  .00000448  00000-0  26884-4 0  9997
2 40906  97.4724 353.5446 0013253 280.6993 235.8813 15.15864775234980
XW-2D
1 40907U 15049J   19354.47682714  .00000760  00000-0  42890-4 0  9990
2 40907  97.4703 353.2492 0012558 277.7411 235.2814 15.16073024235004
LILACSAT 2
1 40908U 15049K   19354.41337319  .00000452  00000-0  28547-4 0  9994
2 40908  97.4849 351.7886 0014404 286.7926 207.4486 15.13917568234753
XW-2F
1 40910U 15049M   19354.45915656  .00000815  00000-0  43857-4 0  9991
2 40910  97.4652 355.5234 0013163 267.6835 256.2299 15.17602015235033
XW-2B
1 40911U 15049N   19354.45441896  .00000415  00000-0  25064-4 0  9998
2 40911  97.4722 353.9074 0012537 278.5518 247.0532 15.15999089234898
KAITUO 1B
1 40912U 15049P   19354.39461670  .00000967  00000-0  48087-4 0  9996
2 40912  97.4492 359.3888 0013323 246.0512 221.5810 15.19952470235360
TIANWANG 1C (TW-1C)
1 40926U 15051B   19354.49479453  .00012312  00000-0  15471-3 0  9990
2 40926  97.1127  40.6380 0008347  52.4113  54.8462 15.59789320238921
